Location: CNYAC Observatory
(43.2150°N, 74.9500°W)
Time: 11:37:12
(UTC-04:00)

Meteor 1-22 Rocket - Pass Details

Date: 03 June 2018
Orbit: 788 x 940 km, 81.2° (Epoch: 17 September)

Event Time Altitude Azimuth Distance (km) Brightness Sun altitude
Rises 21:28:27 0° 356° (N) 3,304 8.1 -8.6°
Reaches altitude 10° 21:30:59 10° 4° (N) 2,363 7.1 -9.0°
Maximum altitude 21:35:58 41° 74° (ENE) 1,140 4.7 -9.6°
Enters shadow 21:40:22 13° 141° (SE) 2,150 5.7 -10.2°
